Location: Beadle
(51.4667°N, 109.0000°W)
Time: 19:03:26
(UTC+00:00)

O/OREOS (USA 219) - Pass Details

Date: 02 July 2022
Orbit: 621 x 646 km, 72.0° (Epoch: 22 May)

Event Time Altitude Azimuth Distance (km) Brightness Sun altitude
Rises 05:54:17 0° 336° (NNW) 2,964 ? -13.2°
Reaches altitude 10° 05:56:53 10° 349° (N) 2,053 ? -13.3°
Maximum altitude 06:00:47 26° 47° (NE) 1,270 ? -13.5°
Drops below altitude 10° 06:04:41 10° 104° (ESE) 2,048 ? -13.7°
Enters shadow 06:05:28 - 109° (ESE) 2,310 ? -13.7°
